This is the latest recevied weather packets stored in our database for station/object ac2ev. If no packets are shown the sender has not sent any weather packets the latest 10 day(s).
| Time | Temp. | Humidity | Pressure | Rain* | Wind** | Luminosity | Snow |
|---|---|---|---|---|---|---|---|
| 1777305571 | 16.67° C | 52% | 1023.1 hPa | 0 mm | - | - | - |
| 1777305270 | 17.22° C | 49% | 1023.1 hPa | 0 mm | - | - | - |
| 1777304968 | 17.22° C | 49% | 1023.1 hPa | 0 mm | - | - | - |
| 1777304668 | 17.22° C | 50% | 1023.3 hPa | 0 mm | - | - | - |
| 1777304367 | 17.78° C | 49% | 1023.5 hPa | 0 mm | - | - | - |
| 1777304068 | 17.78° C | 48% | 1023.5 hPa | 0 mm | - | - | - |
| 1777303766 | 17.22° C | 50% | 1023.5 hPa | 0 mm | - | - | - |
| 1777303466 | 17.78° C | 47% | 1023.5 hPa | 0 mm | - | - | - |
| 1777303164 | 17.78° C | 47% | 1023.6 hPa | 0 mm | - | - | - |
| 1777302863 | 17.78° C | 46% | 1023.7 hPa | 0 mm | - | - | - |
| 1777302562 | 17.78° C | 44% | 1023.7 hPa | 0 mm | - | - | - |
| 1777302260 | 17.22° C | 44% | 1023.8 hPa | 0 mm | - | - | - |
| 1777301960 | 17.22° C | 43% | 1023.8 hPa | 0 mm | - | - | - |
| 1777301660 | 17.78° C | 42% | 1023.9 hPa | 0 mm | - | - | - |
| 1777301358 | 17.78° C | 45% | 1023.9 hPa | 0 mm | - | - | - |
| 1777301055 | 17.22° C | 44% | 1023.9 hPa | 0 mm | - | - | - |
| 1777300755 | 17.78° C | 42% | 1024 hPa | 0 mm | - | - | - |
| 1777300453 | 17.78° C | 43% | 1024 hPa | 0 mm | - | - | - |
| 1777300154 | 17.78° C | 46% | 1023.9 hPa | 0 mm | - | - | - |
| 1777299853 | 17.22° C | 48% | 1024 hPa | 0 mm | - | - | - |
| 1777299554 | 17.22° C | 45% | 1024.1 hPa | 0 mm | - | - | - |
| 1777299251 | 16.67° C | 46% | 1024.1 hPa | 0 mm | - | - | - |
| 1777298951 | 16.67° C | 46% | 1024 hPa | 0 mm | - | - | - |
| 1777298652 | 16.67° C | 46% | 1024.1 hPa | 0 mm | - | - | - |
| 1777298352 | 16.67° C | 48% | 1024 hPa | 0 mm | - | - | - |
* Rain latest hour (hover to see other rain measurements)
** Current wind speed in m/s (hover to see current wind gust speed)